Погода в Джалалабаде

Погода в Джалалабаде : погода сейчас, прогноз погоды и архив. Всё, что Вы хотите узнать о погоде в Джалалабаде!

Поиск расширенной информации на нашем сайте:

Другие новости

Новости СМИ2

Главная страница сайта

Новости сайта

03.07.2017

Напоминаем, что на нашем специализированном сайте Метеоцентр.Азия вы можете получить высокодетализированные автоматические прогнозы погоды по пунктам России, СНГ и мира в авиационном формате (включающие направление и скорость ветра, видимость, явления погоды, количество и форму облачности, нижнюю и верхнюю границу облачности).

Рекомендуем: Смотрите описание шкода на сайте.

Погода в Джалалабаде - сегодня

Время (UTC), дата Ветер
(°,м/с) 
Видим.   Явления Облачность Т
(°С)
Тd
(°С)
f(%) Тe
(°С)
Pmin
(гПа)
dP
(гПа)
Po
(мм)
O2
(г/м3)
Тmin Tmax R s Состояние
почвы
21 23.07.17 020 (С) н/о    ясно 
+22.8 +11.5 49 +28  1001.2  0.7  687  253           
00 24.07.17 020 (С) 20000 м    ясно 
+20.8 +12.9 61 +28  1002.8  0.2  690  256           
03 24.07.17 030 (СВ) 20000 м    ясно 
+27.1 +11.9 39 +31  1002.9  -0.1  752  273           
06 24.07.17 210 (ЮЗ) 20000 м    ясно 
+32.3 +12 29 +38  1000.4  -1  689  245  +20.8         
09 24.07.17 180 (Ю) 20000 м    3/3 600 м верхняя 
[Cu med, cong|Ci fib]
+34.9   998.3  -1.3  688             
12 24.07.17 180 (Ю) 20000 м    1/1 600 м 
[Cu med, cong]
+34.1 +13.4 29 +42  997.8  -0.6  688  244           
15 24.07.17 020 (С) н/о    4/0 средняя 
[As op]
+28.2   1001.5  1.9        +35.6       
18 24.07.17 020 (С) н/о    ясно 
+24.4 +11.8 45 +30  1002.4  -0.2  689  252    +35.6       
21 24.07.17 010 (С) н/о    ясно 
+22.2 +11.1 49 +27  1002.2  -0.8  688  254           
00 25.07.17 010 (С) 20000 м    ясно 
+20.8 +10.5 52 +24  1002.7  -0.1  689  256           
03 25.07.17 020 (С) 20000 м    ясно 
+27.4 +12.9 41 +33  1001.1  0.3  751  273           
06 25.07.17 250 (З) 20000 м    ясно 
+32.7 +11.7 28 +38  998.6  -0.9  688  245  +20.8         
09 25.07.17 180 (Ю) 20000 м    1/1 1000 м 
[Cu med, cong]
+36.5 +11.7 23 +42  996.3  -1.2  687  241           
12 25.07.17 270 (З) 20000 м    3/1 1000 м 
[Cu med, cong]
+35.4 +13.5 27 +44  995.6  -0.9  687  242           
15 25.07.17 010 (С) н/о    ясно 
+28.4 +15.9 47 +41  998.1  0.7  686  246    +38       
18 25.07.17 020 (С) н/о    ясно 
+25.1 +13.9 50 +34  1000.8  1.5  688  250    +38       
21 25.07.17 030 (СВ) н/о    ясно 
+23 +12.5 52 +30  1001.2  -0.2  687  252           
00 26.07.17 010 (С) 20000 м    ясно 
+21.2 +12.2 56 +27  1002.2  0.4  689  255    +2       
03 26.07.17 070 (В) 20000 м    ясно 
+28.2 +14.5 43 +38  1001  0.8  688  248           
06 26.07.17 280 (З) 20000 м    ясно 
+34.7 +10.9 24 +39  998.6  -0.7  688  243  +21.3         
09 26.07.17 070 (В) 20000 м    ясно 
+37.4 +9.9 19 +40  996.5  -1.3  687  241           
12 26.07.17 010 (С) 20000 м    ясно 
+35.7 +13 26 +43  996.9  -0.4  688  242           
15 26.07.17 120 (ЮВ) 20000 м    ясно 
+29.2 +15.4 43 +44  918.8  0.7  632  226    +38.2       
18 26.07.17 070 (В) н/о    ясно 
+25.8 +12.7 44 +33  1001.2  0.8  688  250    +38.2       
21 26.07.17 020 (С) н/о    ясно 
+24 +12.7 49 +31  1001.5  0.5  688  252           
Время (UTC), дата Ветер
(°,м/с) 
Видим.   Явления Облачность Т
(°С)
Тd
(°С)
f(%) Тe
(°С)
Pmin
(гПа)
dP
(гПа)
Po
(мм)
O2
(г/м3)
Тmin Tmax R s Состояние
почвы

Для получения пояснительной информации подведите курсор к названию столбца.

ПОГОДА в Джалалабаде - архив

Всё, что Вы хотите узнать о погоде в Джалалабаде - удобно и подробно!

Выберите нужную дату (начиная с 1 января 2015* года) и нажмите кнопку "Найти".
Будут отображены архивные сводки погоды по пункту Джалалабад, начиная с указанной даты.


Отображать данные в формате CSV (для использования в таблицах Excel)


Внимание! Наш архив погоды предназначен исключительно для личного некоммерческого использования в познавательных целях. Если Вам необходимы официальные справки о состоянии погоды (для производственных, юридических, коммерческих и т.п. целей), обращайтесь в органы Росгидромета.

*Примечание: данная дата относится к архиву по метеостанциям СССР (Россия, СНГ, Балтия).
Архив по метеостанциям Зарубежной Европы и Азии (кроме Китая) хранится 10 дней, по другим регионам земного шара (Китай, Африка, Америка, Австралия, Океания) - 1 день.

Джалалабад - район местоположения метеостанции


Название, широта, долгота, высота метеостанции:
Джалалабад 40.9°ш. 72.9°д. 765 м над ур. моря [Кыргызстан]

Дополнительная информация

В oтличие oт бoльшинства пoгoдных сайтoв мы публикуем пoдрoбную метеoинфoрмацию в детальнoм прoфессиoнальнoм фoрмате.

Характеристики температуры и влажнoсти вoздуха измеряются на высoте 2 м в тени вдали oт зданий и деревьев.
Скoрoсть ветра измеряется на высoте 10 м (на урoвне рoста челoвека скoрoсть ветра ниже в 1.5-2 раза). Если метеoстанция нахoдится в гoрoде или в лесу, тo скoрoсть ветра занижена на 2-4 м/с пo сравнению с oткрытым местoм. Скoрoсть ветра над акватoриями крупных рек и oзёр, а также на вершинах хoлмoв на 2-5 м/с выше, чем в oбычных услoвиях.
Атмoсфернoе давление в разных тoчках местнoсти мoжет значительнo oтличаться oт давления на метеoстанции, в зависимoсти oт услoвий рельефа (при пoдъёме на 10 м давление пoнижается примернo на 1 мм рт.ст.).